GW1348 Weather Reports


Display with metric or nautical units.
time (UTC)temp
F
wind
direction
speed
MPH
gust
MPH
rain 1hr
in
rain 24hr
in
rain mn
in
humidity
%
barometer
mb
20260503204542 36 0 0.0 0.0 0.00 0.00 0.00 82 1003.9
20260503204030 36 0 0.0 0.0 0.00 0.00 0.00 82 1004.0
20260503203530 37 0 0.0 0.0 0.00 0.00 0.00 81 1004.1
20260503203041 37 0 0.0 0.0 0.00 0.00 0.00 81 1004.2
20260503202530 37 0 0.0 0.0 0.00 0.00 0.00 81 1004.2
20260503202030 37 0 0.0 0.0 0.00 0.00 0.00 81 1004.2
20260503201547 37 0 0.0 1.0 0.00 0.00 0.00 81 1004.3
20260503201030 37 0 0.0 1.0 0.00 0.00 0.00 81 1004.4
20260503200530 37 0 0.0 1.0 0.00 0.00 0.00 80 1004.4
20260503200050 37 0 0.0 1.0 0.00 0.00 0.00 80 1004.5
20260503195531 38 0 0.0 1.0 0.00 0.00 0.00 79 1004.6
20260503195031 38 0 0.0 1.0 0.00 0.00 0.00 79 1004.7
20260503194544 38 0 0.0 1.0 0.00 0.00 0.00 78 1004.7
20260503194031 38 0 0.0 1.0 0.00 0.00 0.00 78 1004.8
20260503193531 39 0 0.0 2.0 0.00 0.00 0.00 77 1004.9
20260503193048 39 0 0.0 3.0 0.00 0.00 0.00 77 1004.9
20260503192530 39 0 0.0 3.0 0.00 0.00 0.00 76 1004.9
20260503192032 39 0 0.0 2.0 0.00 0.00 0.00 76 1004.8
20260503191540 39 0 0.0 2.0 0.00 0.00 0.00 75 1004.9
20260503191030 39 0 0.0 0.0 0.00 0.00 0.00 75 1004.8
20260503190530 39 0 0.0 0.0 0.00 0.00 0.00 75 1004.9
20260503190041 39 0 0.0 0.0 0.00 0.00 0.00 74 1004.9
20260503185531 40 0 0.0 0.0 0.00 0.00 0.00 74 1005.0
20260503185030 40 0 0.0 0.0 0.00 0.00 0.00 71 1004.9
20260503184600 40 0 0.0 0.0 0.00 0.00 0.00 70 1004.9
20260503184031 40 0 0.0 0.0 0.00 0.00 0.00 70 1004.9
20260503183531 40 0 0.0 0.0 0.00 0.00 0.00 70 1004.9
20260503183055 40 0 0.0 0.0 0.00 0.00 0.00 70 1004.9
20260503182533 40 0 0.0 0.0 0.00 0.00 0.00 70 1005.0
20260503182031 40 0 0.0 0.0 0.00 0.00 0.00 71 1005.0
20260503181541 40 0 0.0 0.0 0.00 0.00 0.00 71 1005.1
20260503181030 40 0 0.0 0.0 0.00 0.00 0.00 70 1005.1
20260503180532 41 0 0.0 0.0 0.00 0.00 0.00 71 1005.0
20260503180040 41 0 0.0 0.0 0.00 0.00 0.00 70 1005.2
20260503175530 41 0 0.0 0.0 0.00 0.01 0.00 71 1005.1
20260503175034 41 0 0.0 0.0 0.00 0.01 0.00 70 1005.1
20260503174544 41 0 0.0 0.0 0.00 0.01 0.00 69 1005.1
20260503174031 42 0 0.0 0.0 0.00 0.01 0.00 68 1005.1
20260503173531 42 0 0.0 0.0 0.00 0.01 0.00 68 1005.1
20260503173045 42 0 0.0 0.0 0.00 0.01 0.00 66 1005.2
20260503172531 42 0 0.0 0.0 0.00 0.01 0.00 65 1005.1
20260503172031 42 0 0.0 0.0 0.00 0.01 0.00 64 1005.3
20260503171542 43 0 0.0 0.0 0.00 0.01 0.00 63 1005.2
20260503171033 43 0 0.0 0.0 0.00 0.01 0.00 63 1005.2
20260503170531 43 0 0.0 0.0 0.00 0.01 0.00 62 1005.3
20260503150530 43 0 0.0 2.0 0.00 0.05 0.00 62 1007.0
20260503131030 44 58 0.0 2.0 0.00 0.05 0.00 62 1007.9
20260503130529 43 0 1.0 4.0 0.00 0.05 0.00 63 1007.9
20260503110531 43 26 0.0 3.0 0.00 0.07 0.00 64 1009.3
20260503081610 39 73 1.0 6.0 0.00 0.10 0.00 74 1010.6
20260503081029 39 157 1.0 6.0 0.00 0.10 0.00 75 1010.6
20260503080530 38 117 1.0 6.0 0.00 0.10 0.00 75 1010.7
20260503072530 37 155 2.0 5.0 0.00 0.11 0.00 79 1010.8
20260503072031 37 175 1.0 5.0 0.00 0.11 0.00 81 1011.0
20260503071548 37 333 0.0 6.0 0.00 0.11 0.00 81 1011.0
20260503071029 37 154 1.0 6.0 0.00 0.11 0.00 81 1011.1
20260503070529 37 150 1.0 5.0 0.00 0.11 0.00 81 1011.0
20260503055029 36 131 1.0 3.0 0.00 0.18 0.00 82 1011.0
20260503054553 36 228 0.0 2.0 0.00 0.18 0.00 81 1011.0
20260503054031 36 131 0.0 4.0 0.00 0.18 0.00 81 1010.9
20260503053529 36 96 0.0 4.0 0.00 0.18 0.00 81 1011.1
20260503053043 35 117 0.0 3.0 0.00 0.18 0.00 82 1011.0
20260503052529 35 129 0.0 3.0 0.00 0.18 0.00 82 1011.0
20260503052030 35 143 0.0 2.0 0.00 0.18 0.00 83 1011.0
20260503051541 35 149 0.0 3.0 0.00 0.18 0.00 83 1011.0
20260503051029 35 132 1.0 3.0 0.00 0.18 0.00 82 1011.0
20260503050531 35 0 1.0 2.0 0.00 0.18 0.00 82 1011.0
20260503050043 35 0 0.0 2.0 0.00 0.18 0.00 82 1011.0
20260503045533 35 135 0.0 3.0 0.00 0.18 0.00 82 1011.0
20260503045028 35 143 0.0 3.0 0.00 0.18 0.00 82 1011.0
20260503044543 35 143 0.0 3.0 0.00 0.18 0.00 83 1010.9
20260503044029 35 142 0.0 3.0 0.00 0.18 0.00 83 1011.0
20260503043529 35 0 0.0 3.0 0.00 0.18 0.00 83 1011.0
20260503043047 34 0 1.0 3.0 0.00 0.18 0.00 83 1011.0
20260503042529 35 145 1.0 2.0 0.00 0.18 0.00 84 1011.0
20260503042029 35 116 0.0 1.0 0.00 0.18 0.00 84 1010.9
20260503041547 34 0 0.0 3.0 0.00 0.18 0.00 85 1011.0
20260503041028 34 149 1.0 3.0 0.00 0.18 0.00 85 1011.0
20260503040529 34 0 0.0 2.0 0.00 0.18 0.00 85 1011.1
20260503040048 34 0 0.0 1.0 0.00 0.18 0.00 85 1011.1
20260503035530 35 0 0.0 1.0 0.00 0.18 0.00 85 1011.2
20260503035029 35 0 0.0 1.0 0.00 0.18 0.00 84 1011.1
20260503034546 35 0 0.0 4.0 0.00 0.18 0.00 84 1011.1
20260503034030 35 0 0.0 4.0 0.00 0.18 0.00 83 1011.0
20260503033528 35 0 1.0 4.0 0.00 0.18 0.00 82 1011.0
20260503033058 35 90 1.0 4.0 0.00 0.18 0.00 83 1011.1
20260503032529 35 290 0.0 3.0 0.00 0.18 0.00 83 1011.1
20260503032030 35 0 0.0 3.0 0.00 0.18 0.00 83 1011.1
20260503031552 35 155 0.0 3.0 0.00 0.18 0.00 83 1011.1
20260503031031 35 162 0.0 4.0 0.00 0.18 0.00 83 1011.2
20260503030530 35 92 1.0 4.0 0.00 0.18 0.00 83 1011.2
20260503030044 34 141 1.0 4.0 0.00 0.18 0.00 84 1011.3
20260503025529 34 0 0.0 1.0 0.00 0.18 0.00 84 1011.2
20260503025029 34 117 0.0 1.0 0.00 0.18 0.00 84 1011.2
20260503024556 34 0 0.0 3.0 0.00 0.18 0.00 84 1011.2
20260503024032 34 0 0.0 3.0 0.00 0.18 0.00 84 1011.2
20260503023528 34 0 0.0 3.0 0.00 0.18 0.00 85 1011.2
20260503023042 34 0 0.0 1.0 0.00 0.18 0.00 85 1011.3
20260503022529 34 0 0.0 1.0 0.00 0.18 0.00 85 1011.4
20260503022032 34 0 0.0 0.0 0.00 0.18 0.00 85 1011.4
20260503021540 34 0 0.0 1.0 0.00 0.18 0.00 85 1011.3
20260503021029 34 0 0.0 1.0 0.00 0.18 0.00 85 1011.4
20260503020530 35 100 0.0 3.0 0.00 0.18 0.00 85 1011.4
20260503020049 35 111 0.0 3.0 0.00 0.18 0.00 85 1011.4
20260503015530 35 141 1.0 4.0 0.00 0.18 0.00 84 1011.4
20260503015029 35 0 0.0 4.0 0.00 0.18 0.00 84 1011.4
20260503014544 35 360 1.0 4.0 0.00 0.18 0.00 85 1011.4
20260503014029 35 0 1.0 4.0 0.00 0.18 0.00 85 1011.4
20260503013533 35 0 0.0 3.0 0.00 0.18 0.00 85 1011.4
20260503013043 35 163 1.0 3.0 0.00 0.18 0.00 85 1011.4
20260503012532 35 143 0.0 3.0 0.00 0.18 0.00 85 1011.4
20260503012031 35 0 0.0 1.0 0.00 0.18 0.00 86 1011.5
20260503011543 35 0 0.0 1.0 0.00 0.18 0.00 86 1011.5
20260503011031 35 0 0.0 2.0 0.00 0.18 0.00 86 1011.6
20260503010531 35 0 0.0 2.0 0.00 0.18 0.00 86 1011.7
20260503010041 35 0 0.0 2.0 0.00 0.18 0.00 86 1011.8
20260503005531 35 137 0.0 2.0 0.00 0.18 0.00 86 1011.8
20260503005033 35 131 1.0 2.0 0.00 0.18 0.00 86 1011.8
20260503004543 35 162 0.0 2.0 0.00 0.18 0.00 86 1011.9
20260503004030 35 241 0.0 2.0 0.00 0.18 0.00 86 1012.0
20260503003530 35 0 0.0 3.0 0.00 0.18 0.00 86 1012.0
20260503003059 34 0 0.0 3.0 0.00 0.18 0.00 86 1012.0
20260503002533 34 0 0.0 1.0 0.00 0.18 0.00 86 1012.1
20260503002033 34 0 0.0 1.0 0.00 0.18 0.00 85 1012.1
20260503001557 34 141 0.0 1.0 0.00 0.18 0.00 85 1012.2
20260503001032 35 0 0.0 0.0 0.00 0.18 0.00 85 1012.1
20260503000533 35 0 0.0 2.0 0.00 0.18 0.00 85 1012.1
20260502235530 35 135 0.0 4.0 0.00 0.18 0.00 85 1012.0
20260502235030 35 0 1.0 4.0 0.00 0.18 0.00 85 1012.0
20260502234538 34 120 0.0 3.0 0.00 0.18 0.00 86 1012.1
20260502234031 34 134 0.0 3.0 0.00 0.18 0.00 86 1012.2
20260502233531 35 0 0.0 3.0 0.00 0.18 0.00 85 1012.2
20260502233102 34 144 0.0 3.0 0.00 0.18 0.00 86 1012.2
20260502232531 35 0 0.0 0.0 0.00 0.18 0.00 86 1012.2
20260502232031 35 0 0.0 2.0 0.00 0.18 0.00 85 1012.3
20260502231600 35 0 0.0 2.0 0.00 0.18 0.00 84 1012.3
20260502231031 35 0 0.0 2.0 0.00 0.18 0.00 83 1012.2
20260502230531 35 0 0.0 4.0 0.00 0.18 0.00 83 1012.2
20260502230044 35 0 0.0 4.0 0.00 0.18 0.00 83 1012.1
20260502225532 35 61 0.0 4.0 0.00 0.18 0.00 83 1012.2
20260502225030 35 0 0.0 3.0 0.00 0.18 0.00 83 1012.1
20260502224541 35 0 0.0 3.0 0.00 0.18 0.00 84 1012.2
20260502224031 35 0 0.0 2.0 0.00 0.18 0.00 85 1012.3
20260502223531 35 0 0.0 1.0 0.00 0.18 0.00 84 1012.3
20260502223050 35 0 0.0 1.0 0.00 0.18 0.00 84 1012.3
20260502222531 35 0 0.0 2.0 0.00 0.18 0.00 84 1012.3
20260502222031 35 117 0.0 2.0 0.00 0.18 0.00 84 1012.2
20260502221555 35 0 0.0 2.0 0.00 0.18 0.00 85 1012.3
20260502221033 35 0 0.0 2.0 0.00 0.18 0.00 85 1012.2
20260502220533 35 0 0.0 2.0 0.00 0.18 0.00 85 1012.3
20260502220044 35 48 0.0 2.0 0.00 0.18 0.00 86 1012.2
20260502215531 35 0 0.0 2.0 0.00 0.18 0.18 85 1012.3
20260502215032 35 36 0.0 2.0 0.00 0.18 0.18 85 1012.3
20260502214550 35 0 0.0 2.0 0.00 0.18 0.18 85 1012.3
20260502214032 35 253 0.0 2.0 0.00 0.18 0.18 87 1012.3
20260502213531 35 0 0.0 1.0 0.00 0.18 0.18 87 1012.3
20260502213050 35 0 0.0 1.0 0.00 0.18 0.18 88 1012.3
20260502212531 35 0 0.0 1.0 0.00 0.18 0.18 88 1012.4
20260502212033 35 0 0.0 2.0 0.00 0.18 0.18 88 1012.4
20260502211547 35 143 0.0 2.0 0.00 0.18 0.18 88 1012.3
20260502211033 35 0 0.0 2.0 0.00 0.18 0.18 87 1012.2
20260502210532 35 0 0.0 3.0 0.00 0.18 0.18 87 1012.4
20260502210045 35 121 0.0 3.0 0.00 0.18 0.18 87 1012.3
20260502205532 35 272 0.0 2.0 0.00 0.18 0.18 87 1012.4
20260502205031 35 0 0.0 3.0 0.00 0.18 0.18 87 1012.5